This demonstration page uses our WeatherBlox Daily Observations layout. Learn more.

Left ArrowRight Arrow

39.51506, -84.39828

Hourly Observations for June 18, 2018

Temp ( °F °C ) Dew Point ( °F °C ) Humidity (%) Winds ( mph kmh ) Pressure ( in mb ) Visibility ( mi km ) Precip ( " mm )
12:15 am 00:15 Clear with Mist and Fog 74 23.1 72 22.4 96 96 N N/A 30.06 1018 7 11 N/A
12:35 am 00:35 Clear with Mist and Fog 73 23 72 22.4 96 96 N N/A 30.06 1018 7 11 N/A
12:55 am 00:55 Clear with Mist and Fog 73 22.8 72 22.2 96 96 N N/A 30.06 1018 7 11 N/A
1:15 am 01:15 Clear with Mist and Fog 72 22.4 72 22 98 98 N N/A 30.06 1018 5 8 N/A
1:35 am 01:35 Clear with Mist and Fog 72 22.4 71 21.8 96 96 N N/A 30.06 1018 5 8 N/A
1:55 am 01:55 Clear with Mist and Fog 72 22.2 71 21.7 97 97 N N/A 30.06 1018 5 8 N/A
2:15 am 02:15 Clear with Mist and Fog 71 21.9 71 21.6 98 98 N N/A 30.06 1018 3 5 N/A
2:35 am 02:35 Clear with Mist and Fog 72 22 71 21.8 99 99 N N/A 30.06 1018 5 8 N/A
2:55 am 02:55 Clear with Mist and Fog 71 21.8 71 21.5 98 98 N N/A 30.06 1018 5 8 N/A
3:15 am 03:15 Clear with Mist and Fog 71 21.5 70 21.1 98 98 N N/A 30.06 1018 4 6 N/A
3:35 am 03:35 Clear with Mist and Fog 71 21.7 71 21.5 99 99 N N/A 30.03 1017 4 6 N/A
3:55 am 03:55 Clear with Mist and Fog 71 21.6 71 21.4 99 99 N N/A 30.03 1017 3 4 N/A
4:15 am 04:15 Clear with Mist and Fog 71 21.5 71 21.4 99 99 N N/A 30.03 1017 2 3 N/A
4:35 am 04:35 Clear with Mist and Fog 71 21.4 70 21.2 99 99 N N/A 30.03 1017 3 4 N/A
4:55 am 04:55 Clear with Mist and Fog 69 20.8 69 20.7 99 99 N N/A 30.06 1018 3 4 N/A
5:15 am 05:15 Mostly Cloudy with Mist and Fog 70 21.2 70 21.1 99 99 N N/A 30.03 1017 1 2 N/A
5:35 am 05:35 Mostly Cloudy with Fog 70 21.2 70 21.1 99 99 N N/A 30.03 1017 1 1 N/A
5:55 am 05:55 Mostly Cloudy with Fog 70 21 70 20.9 99 99 N N/A 30.06 1018 0 0 N/A
6:15 am 06:15 Mostly Cloudy with Mist and Fog 69 20.8 69 20.7 99 99 N N/A 30.06 1018 1 1 N/A
6:35 am 06:35 Mostly Cloudy with Mist and Fog 69 20.8 69 20.7 99 99 N N/A 30.06 1018 1 2 N/A
6:55 am 06:55 Sunny with Mist and Fog 71 21.4 70 21.3 99 99 N N/A 30.06 1018 3 4 N/A
7:15 am 07:15 Sunny with Mist and Fog 71 21.9 71 21.8 99 99 N N/A 30.06 1018 3 4 N/A
7:35 am 07:35 Sunny with Mist and Fog 73 22.6 73 22.5 99 99 N N/A 30.06 1018 3 4 N/A
7:55 am 07:55 Sunny with Mist and Fog 74 23.6 73 23 96 96 N N/A 30.06 1018 4 6 N/A
8:15 am 08:15 Sunny 77 24.9 74 23.3 91 91 SSW 6 9 30.06 1018 7 11 N/A
8:35 am 08:35 Sunny 79 26 74 23.4 86 86 SSW 5 7 30.06 1018 7 11 N/A
8:55 am 08:55 Sunny 80 26.8 74 23.4 82 82 SSW 6 9 30.06 1018 10 16 N/A
9:15 am 09:15 Sunny 82 27.6 74 23.4 78 78 SSW 5 7 30.06 1018 10 16 N/A
9:35 am 09:35 Sunny 83 28.4 74 23.4 74 74 SSW 9 15 30.06 1018 10 16 N/A
9:55 am 09:55 Sunny 84 29 75 23.7 73 73 SW 8 13 30.03 1017 10 16 N/A
10:15 am 10:15 Sunny 85 29.7 74 23.6 70 70 SW 7 11 30.03 1017 10 16 N/A
10:35 am 10:35 Sunny 86 30.2 75 23.7 68 68 WSW 8 13 30.03 1017 10 16 N/A
10:55 am 10:55 Sunny 88 30.9 75 24 67 67 WSW 9 15 30.03 1017 10 16 N/A
11:15 am 11:15 Sunny 88 31.3 76 24.2 66 66 WSW 12 19 30.03 1017 10 16 N/A
11:35 am 11:35 Partly Cloudy 88 31.3 75 23.8 64 64 WSW 15 24 30.03 1017 10 16 N/A
11:55 am 11:55 Sunny 89 31.9 75 23.8 62 62 WSW 9 15 30.03 1017 10 16 N/A
12:15 pm 12:15 Partly Cloudy 89 31.9 74 23.5 61 61 WSW 12 19 30.03 1017 10 16 N/A
12:35 pm 12:35 Sunny 91 32.5 74 23.2 58 58 WSW 13 20 30.03 1017 10 16 N/A
12:55 pm 12:55 Partly Cloudy 90 32.4 74 23.3 59 59 W 9 15 30.03 1017 10 16 N/A
1:15 pm 13:15 Sunny 91 32.7 74 23.3 58 58 WSW 14 22 30.03 1017 10 16 N/A
1:35 pm 13:35 Sunny 91 32.9 74 23.5 58 58 SW 12 19 30.00 1016 10 16 N/A
1:55 pm 13:55 Sunny 91 32.9 74 23.2 57 57 SW 12 19 30.00 1016 10 16 N/A
2:15 pm 14:15 Partly Cloudy 92 33.2 74 23.6 57 57 SW 14 22 30.00 1016 10 16 N/A
2:35 pm 14:35 Sunny 92 33.4 74 23.4 56 56 SW 16 26 30.00 1016 10 16 N/A
2:55 pm 14:55 Partly Cloudy 92 33.6 73 22.6 53 53 SW 16 26 30.00 1016 10 16 N/A
3:15 pm 15:15 Partly Cloudy 93 33.7 73 22.9 53 53 WSW 12 19 29.97 1015 10 16 N/A
3:35 pm 15:35 Partly Cloudy 92 33.6 72 22.2 51 51 W 9 15 29.97 1015 10 16 N/A
3:55 pm 15:55 Partly Cloudy 92 33.4 73 22.9 54 54 WSW 10 17 29.97 1015 10 16 N/A
4:15 pm 16:15 Partly Cloudy 92 33.3 73 22.9 54 54 SW 13 20 29.97 1015 10 16 N/A
4:35 pm 16:35 Sunny 92 33.4 74 23.1 55 55 WSW 12 19 29.94 1014 10 16 N/A
4:55 pm 16:55 Partly Cloudy 92 33.3 72 22.1 52 52 WSW 12 19 29.94 1014 10 16 N/A
5:15 pm 17:15 Sunny 92 33.3 73 22.6 53 53 SW 12 19 29.94 1014 10 16 N/A
5:35 pm 17:35 Sunny 92 33.2 70 21.3 50 50 SW 15 24 29.94 1014 10 16 N/A
5:55 pm 17:55 Sunny 91 33 71 21.6 51 51 SW 13 20 29.91 1013 10 16 N/A
6:15 pm 18:15 Sunny 91 32.9 71 21.9 52 52 WSW 13 20 29.91 1013 10 16 N/A
6:35 pm 18:35 Sunny 91 32.7 72 22 53 53 WSW 10 17 29.91 1013 10 16 N/A
6:55 pm 18:55 Sunny 90 32.4 72 22 54 54 SW 13 20 29.91 1013 10 16 N/A
7:15 pm 19:15 Sunny 90 32 72 22.3 56 56 WSW 8 13 29.91 1013 10 16 N/A
7:35 pm 19:35 Sunny 89 31.6 72 22.4 58 58 WSW 9 15 29.91 1013 10 16 N/A
7:55 pm 19:55 Sunny 88 31.1 73 22.6 61 61 SW 8 13 29.91 1013 10 16 N/A
8:15 pm 20:15 Sunny 87 30.5 73 22.7 63 63 WSW 6 9 29.91 1013 10 16 N/A
8:35 pm 20:35 Sunny 86 30 73 22.6 65 65 WSW 7 11 29.91 1013 10 16 N/A
8:55 pm 20:55 Sunny 85 29.2 73 22.6 68 68 WSW 6 9 29.91 1013 10 16 N/A
9:15 pm 21:15 Clear 82 27.9 73 22.7 73 73 WSW 6 9 29.94 1014 10 16 N/A
9:35 pm 21:35 Clear 82 27.9 72 22.4 72 72 WSW 5 7 29.94 1014 10 16 N/A
9:55 pm 21:55 Clear 81 27.2 72 22.4 75 75 SW 6 9 29.97 1015 10 16 N/A
10:15 pm 22:15 Clear 80 26.4 73 22.6 80 80 SW 5 7 29.97 1015 10 16 N/A
10:35 pm 22:35 Clear 79 26.1 73 22.7 82 82 SW 3 6 29.97 1015 10 16 N/A
10:55 pm 22:55 Clear 77 25 73 22.8 88 88 SW 7 11 29.97 1015 10 16 N/A
11:15 pm 23:15 Clear 78 25.3 73 22.8 86 86 SW 6 9 29.97 1015 10 16 N/A
11:35 pm 23:35 Clear 78 25.5 73 22.6 84 84 SW 6 9 29.97 1015 10 16 N/A
11:55 pm 23:55 Clear 78 25.5 73 22.5 84 84 SW 5 7 29.97 1015 10 16 N/A

Powered by AerisWeather